FW4378 Weather Reports


time (UTC)temp
F
wind
direction
speed
knots
gust
knots
rain 1hr
in
rain 24hr
in
rain mn
in
humidity
%
barometer
mb
20260510202706 73 34 3.5 5.2 0.00 0.00 0.00 38 1017.7
20260510202201 73 40 1.7 1.7 0.00 0.00 0.00 39 1018.0
20260510201658 73 21 4.3 5.2 0.00 0.00 0.00 37 1017.7
20260510201155 73 49 2.6 3.5 0.00 0.00 0.00 37 1017.7
20260510200651 73 74 2.6 3.5 0.00 0.00 0.00 39 1017.9
20260510200149 73 36 4.3 5.2 0.00 0.00 0.00 37 1018.1
20260510195646 73 74 1.7 2.6 0.00 0.00 0.00 40 1017.9
20260510195142 72 62 2.6 3.5 0.00 0.00 0.00 39 1017.9
20260510194642 72 47 3.5 5.2 0.00 0.00 0.00 38 1018.0
20260510194139 72 14 5.2 7.0 0.00 0.00 0.00 38 1018.2
20260510193634 73 43 3.5 5.2 0.00 0.00 0.00 39 1018.3
20260510193129 73 345 7.0 7.8 0.00 0.00 0.00 38 1018.3
20260510192625 73 69 2.6 3.5 0.00 0.00 0.00 41 1018.3
20260510192121 72 38 0.9 1.7 0.00 0.00 0.00 42 1018.0
20260510191617 72 3 3.5 5.2 0.00 0.00 0.00 40 1018.1
20260510191114 71 73 2.6 2.6 0.00 0.00 0.00 41 1018.1
20260510190611 72 48 1.7 3.5 0.00 0.00 0.00 42 1018.0
20260510190109 72 70 0.0 0.9 0.00 0.00 0.00 43 1018.2
20260510185605 71 41 2.6 2.6 0.00 0.00 0.00 43 1018.3
20260510185103 71 51 0.9 1.7 0.00 0.00 0.00 40 1018.1
20260510184600 71 67 2.6 2.6 0.00 0.00 0.00 42 1018.1
20260510184055 71 50 1.7 2.6 0.00 0.00 0.00 41 1018.0
20260510183550 71 119 2.6 5.2 0.00 0.00 0.00 42 1018.0
20260510183046 71 61 0.9 1.7 0.00 0.00 0.00 42 1018.2
20260510182544 71 19 1.7 2.6 0.00 0.00 0.00 42 1018.0
20260510182038 70 46 2.6 5.2 0.00 0.00 0.00 43 1018.1
20260510181537 71 68 2.6 3.5 0.00 0.00 0.00 39 1018.1
20260510181032 71 134 1.7 1.7 0.00 0.00 0.00 43 1017.8
20260510180529 70 25 4.3 7.0 0.00 0.00 0.00 43 1018.0
20260510180027 71 53 3.5 5.2 0.00 0.00 0.00 42 1018.0
20260510175522 71 53 1.7 2.6 0.00 0.00 0.00 44 1017.8
20260510175019 70 29 1.7 1.7 0.00 0.00 0.00 47 1017.7
20260510174516 69 52 0.9 0.9 0.00 0.00 0.00 48 1017.7
20260510174014 70 23 2.6 2.6 0.00 0.00 0.00 47 1017.8
20260510173508 69 65 2.6 5.2 0.00 0.00 0.00 47 1017.8
20260510173006 70 8 5.2 7.0 0.00 0.00 0.00 46 1018.0
20260510172501 70 9 3.5 6.1 0.00 0.00 0.00 48 1017.9
20260510171958 70 77 1.7 2.6 0.00 0.00 0.00 47 1017.8
20260510171455 69 73 1.7 2.6 0.00 0.00 0.00 49 1017.8
20260510170951 69 83 3.5 6.1 0.00 0.00 0.00 48 1017.7
20260510170448 69 57 4.3 5.2 0.00 0.00 0.00 48 1017.7
20260510165944 69 69 2.6 3.5 0.00 0.00 0.00 49 1017.8
20260510165440 68 86 0.9 1.7 0.00 0.00 0.00 50 1017.4
20260510164937 68 102 1.7 3.5 0.00 0.00 0.00 50 1018.2
20260510164434 68 61 1.7 2.6 0.00 0.00 0.00 51 1017.8
20260510163934 68 26 5.2 7.0 0.00 0.00 0.00 51 1017.4
20260510163430 68 76 3.5 7.8 0.00 0.00 0.00 52 1017.6
20260510162925 68 21 4.3 6.1 0.00 0.00 0.00 51 1017.6
20260510162423 67 74 2.6 3.5 0.00 0.00 0.00 53 1017.4
20260510161919 68 59 5.2 7.8 0.00 0.00 0.00 53 1017.3
20260510161414 68 47 3.5 3.5 0.00 0.00 0.00 54 1017.3
20260510160912 67 45 2.6 3.5 0.00 0.00 0.00 55 1017.3
20260510160409 67 357 4.3 7.0 0.00 0.00 0.00 55 1017.1
20260510155907 67 46 3.5 5.2 0.00 0.00 0.00 55 1017.2
20260510155405 66 61 1.7 1.7 0.00 0.00 0.00 56 1016.9
20260510154901 66 32 5.2 7.8 0.00 0.00 0.00 57 1016.9
20260510154357 66 38 3.5 7.0 0.00 0.00 0.00 58 1017.1
20260510153851 66 54 2.6 3.5 0.00 0.00 0.00 61 1017.0
20260510153347 66 54 2.6 2.6 0.00 0.00 0.00 63 1016.9
20260510152844 66 22 1.7 3.5 0.00 0.00 0.00 61 1017.1
20260510152342 66 22 0.9 1.7 0.00 0.00 0.00 63 1016.9
20260510151837 66 98 2.6 5.2 0.00 0.00 0.00 63 1017.1
20260510151336 65 41 2.6 2.6 0.00 0.00 0.00 63 1017.0
20260510150831 66 38 3.5 5.2 0.00 0.00 0.00 62 1016.9
20260510150327 66 2 1.7 2.6 0.00 0.00 0.00 62 1017.2
20260510145824 65 57 2.6 3.5 0.00 0.00 0.00 63 1017.2
20260510145320 65 33 4.3 5.2 0.00 0.00 0.00 63 1017.1
20260510144817 66 52 2.6 2.6 0.00 0.00 0.00 63 1016.9
20260510144313 66 355 3.5 6.1 0.00 0.00 0.00 62 1017.2
20260510143813 66 65 5.2 6.1 0.00 0.00 0.00 63 1017.4
20260510143309 65 27 2.6 2.6 0.00 0.00 0.00 63 1017.2
20260510142806 65 87 3.5 5.2 0.00 0.00 0.00 64 1016.9
20260510142306 65 8 5.2 7.0 0.00 0.00 0.00 63 1016.9
20260510141800 65 54 0.0 0.9 0.00 0.00 0.00 63 1016.7
20260510141258 65 57 1.7 1.7 0.00 0.00 0.00 64 1016.9
20260510140755 64 51 1.7 2.6 0.00 0.00 0.00 64 1016.8
20260510140250 64 49 1.7 3.5 0.00 0.00 0.00 63 1016.7
20260510135750 64 3 5.2 7.0 0.00 0.00 0.00 62 1016.6
20260510135245 64 64 1.7 2.6 0.00 0.00 0.00 65 1016.4
20260510134743 64 50 0.9 1.7 0.00 0.00 0.00 67 1016.3
20260510134240 63 36 3.5 3.5 0.00 0.00 0.00 68 1016.2
20260510133736 64 56 5.2 8.7 0.00 0.00 0.00 68 1016.1
20260510133232 63 27 3.5 3.5 0.00 0.00 0.00 70 1016.0
20260510132728 63 62 0.9 1.7 0.00 0.00 0.00 72 1016.0
20260510132226 62 44 1.7 2.6 0.00 0.00 0.00 74 1016.0
20260510131723 62 0 2.6 5.2 0.00 0.00 0.00 73 1015.8
20260510131221 62 46 1.7 2.6 0.00 0.00 0.00 74 1015.6
20260510130717 62 80 2.6 5.2 0.00 0.00 0.00 74 1015.5
20260510130214 62 64 1.7 6.1 0.00 0.00 0.00 74 1015.3
20260510125710 62 41 1.7 2.6 0.00 0.00 0.00 73 1015.4
20260510125206 62 22 2.6 3.5 0.00 0.00 0.00 73 1015.4
20260510124703 62 69 3.5 6.1 0.00 0.00 0.00 73 1015.5
20260510124201 62 90 1.7 5.2 0.00 0.00 0.00 73 1015.2
20260510123655 62 67 1.7 2.6 0.00 0.00 0.00 72 1015.3
20260510123152 62 30 2.6 2.6 0.00 0.00 0.00 71 1015.3
20260510122648 62 49 0.9 1.7 0.00 0.00 0.00 71 1015.3
20260510122144 62 71 1.7 2.6 0.00 0.00 0.00 70 1015.2
20260510121641 62 60 0.9 0.9 0.00 0.00 0.00 69 1015.1
20260510121138 62 59 0.0 0.0 0.00 0.00 0.00 68 1015.0
20260510120636 62 41 0.9 1.7 0.00 0.00 0.00 67 1015.2
20260510120131 62 79 0.0 0.0 0.00 0.00 0.00 66 1015.0
20260510115628 62 65 0.0 0.9 0.00 0.00 0.00 65 1015.0
20260510115126 62 58 2.6 3.5 0.00 0.00 0.00 63 1014.9
20260510114621 62 46 0.9 1.7 0.00 0.00 0.00 63 1014.7
20260510114118 63 65 0.0 0.0 0.00 0.00 0.00 63 1014.5
20260510113613 63 71 0.0 0.0 0.00 0.00 0.00 62 1014.7
20260510113111 63 45 0.9 1.7 0.00 0.00 0.00 61 1014.7
20260510112607 62 83 0.9 1.7 0.00 0.00 0.00 61 1014.6
20260510112104 62 71 0.0 0.0 0.00 0.00 0.00 62 1014.5
20260510111600 61 72 0.0 0.0 0.00 0.00 0.00 67 1014.5
20260510111056 60 59 0.0 0.0 0.00 0.00 0.00 72 1014.5
20260510110552 60 71 0.0 0.0 0.00 0.00 0.00 73 1014.2
20260510110049 60 64 0.0 0.0 0.00 0.00 0.00 72 1014.3
20260510105544 60 77 0.0 0.0 0.00 0.00 0.00 70 1014.1
20260510105039 60 70 0.0 0.0 0.00 0.00 0.00 70 1014.0
20260510104536 59 74 0.0 0.0 0.00 0.00 0.00 71 1013.9
20260510104032 59 75 0.0 0.0 0.00 0.00 0.00 73 1014.0
20260510103530 59 75 0.0 0.0 0.00 0.00 0.00 77 1013.9
20260510103026 60 73 0.0 0.0 0.00 0.00 0.00 75 1013.8
20260510102522 60 73 0.0 0.0 0.00 0.00 0.00 73 1014.0
20260510102018 60 74 0.0 0.0 0.00 0.00 0.00 71 1013.9
20260510101516 60 76 0.0 0.0 0.00 0.00 0.00 72 1013.8
20260510101014 59 74 0.0 0.0 0.00 0.00 0.00 73 1013.5
20260510100510 59 73 0.0 0.0 0.00 0.00 0.00 74 1013.5
20260510100007 59 73 0.0 0.0 0.00 0.00 0.00 75 1013.6
20260510095503 59 74 0.0 0.0 0.00 0.00 0.00 75 1013.3
20260510095002 59 73 0.0 0.0 0.00 0.00 0.00 75 1013.3
20260510094457 59 73 0.0 0.0 0.00 0.00 0.00 74 1013.2
20260510093953 59 72 0.0 0.0 0.00 0.00 0.00 74 1013.3
20260510093449 59 72 0.0 0.0 0.00 0.00 0.00 74 1013.3
20260510092945 59 70 0.0 0.0 0.00 0.00 0.00 73 1013.3
20260510092443 60 80 0.0 0.0 0.00 0.00 0.00 74 1013.2
20260510091942 60 74 0.0 0.0 0.00 0.00 0.00 73 1013.1
20260510091440 60 72 0.0 0.0 0.00 0.00 0.00 72 1013.2
20260510090936 61 73 0.0 0.0 0.00 0.00 0.00 68 1013.1
20260510090433 61 72 0.0 0.0 0.00 0.00 0.00 70 1013.1
20260510085928 60 79 0.0 0.0 0.00 0.00 0.00 67 1012.7
20260510085424 60 81 0.0 0.0 0.00 0.00 0.00 71 1013.0
20260510084919 60 75 0.0 0.0 0.00 0.00 0.00 70 1012.9
20260510084417 60 73 0.0 0.0 0.00 0.00 0.00 72 1012.9
20260510083913 60 73 0.0 0.0 0.00 0.00 0.00 70 1013.0
20260510083409 60 73 0.0 0.0 0.00 0.00 0.00 71 1013.0
20260510082905 60 73 0.0 0.0 0.00 0.00 0.00 70 1013.0
20260510082403 60 73 0.0 0.0 0.00 0.00 0.00 70 1013.3
20260510081901 60 70 0.0 0.0 0.00 0.00 0.00 67 1012.9
20260510081358 60 77 0.0 0.0 0.00 0.00 0.00 64 1013.3
20260510080855 60 74 0.0 0.0 0.00 0.00 0.00 64 1013.2
20260510080348 60 80 0.0 0.0 0.00 0.00 0.00 65 1013.2
20260510075846 60 76 0.0 0.0 0.00 0.00 0.00 65 1013.1
20260510075344 60 77 0.0 0.0 0.00 0.00 0.00 66 1013.2
20260510074840 60 74 0.0 0.0 0.00 0.00 0.00 69 1013.2
20260510074337 59 73 0.0 0.0 0.00 0.00 0.00 67 1013.1
20260510073833 59 75 0.0 0.0 0.00 0.00 0.00 67 1013.1
20260510073329 59 77 0.0 0.0 0.00 0.00 0.00 68 1012.8
20260510072825 59 75 0.0 0.0 0.00 0.00 0.00 68 1012.7
20260510072323 59 74 0.0 0.0 0.00 0.00 0.00 69 1012.9
20260510071818 59 74 0.0 0.0 0.00 0.00 0.00 69 1013.0
20260510071315 59 72 0.0 0.0 0.00 0.00 0.00 70 1012.8
20260510070814 59 77 0.9 0.9 0.00 0.00 0.00 72 1012.9
20260510070310 59 69 0.0 0.0 0.00 0.00 0.00 70 1012.4
20260510065810 59 77 0.0 0.0 0.00 0.00 0.00 70 1012.6
20260510065307 59 75 0.0 0.0 0.00 0.00 0.00 69 1012.6
20260510064804 59 75 0.0 0.0 0.00 0.00 0.00 69 1012.7
20260510064303 60 75 0.0 0.0 0.00 0.00 0.00 70 1012.9
20260510063803 60 73 0.0 0.0 0.00 0.00 0.00 69 1012.7
20260510063259 60 74 0.0 0.0 0.00 0.00 0.00 67 1012.5
20260510062756 60 76 0.0 0.0 0.00 0.00 0.00 67 1012.5
20260510062252 60 74 0.0 0.0 0.00 0.00 0.00 66 1012.5
20260510061747 60 76 0.0 0.0 0.00 0.00 0.00 64 1012.6
20260510061245 60 77 0.0 0.0 0.00 0.00 0.00 66 1012.6
20260510060741 60 75 0.0 0.0 0.00 0.00 0.00 66 1012.5
20260510060238 60 76 0.0 0.0 0.00 0.00 0.00 66 1012.5
20260510055734 60 76 0.0 0.0 0.00 0.00 0.00 68 1012.6
20260510055233 60 78 0.0 0.0 0.00 0.00 0.00 67 1012.9
20260510054732 60 76 0.0 0.0 0.00 0.00 0.00 69 1012.8
20260510054229 60 76 0.0 0.0 0.00 0.00 0.00 71 1012.7
20260510053728 60 78 0.0 0.0 0.00 0.00 0.00 71 1012.7
20260510053225 60 77 0.0 0.0 0.00 0.00 0.00 71 1012.8
20260510052720 61 75 0.0 0.0 0.00 0.00 0.00 70 1012.6
20260510052217 61 75 0.0 0.0 0.00 0.00 0.00 68 1012.6
20260510051713 61 76 0.0 0.0 0.00 0.00 0.00 67 1012.4
20260510051209 62 77 0.0 0.0 0.00 0.00 0.00 65 1012.5
20260510050707 62 79 0.0 0.0 0.00 0.00 0.00 65 1012.5
20260510050204 62 80 0.0 0.0 0.00 0.00 0.00 64 1012.6
20260510045700 62 78 0.0 0.0 0.00 0.00 0.00 63 1012.3
20260510045157 62 80 0.0 0.0 0.00 0.00 0.00 63 1012.5
20260510044653 63 80 0.0 0.0 0.00 0.00 0.00 62 1012.4
20260510044151 63 85 0.0 0.0 0.00 0.00 0.00 62 1012.5
20260510043646 63 73 0.0 0.0 0.00 0.00 0.00 60 1012.4
20260510043143 63 80 0.0 0.0 0.00 0.00 0.00 61 1012.2
20260510042641 63 80 0.0 0.0 0.00 0.00 0.00 60 1012.0
20260510042137 63 80 0.0 0.0 0.00 0.00 0.00 60 1011.8
20260510041634 63 78 0.0 0.0 0.00 0.00 0.00 61 1012.0
20260510041131 63 78 0.0 0.0 0.00 0.00 0.00 60 1011.9
20260510040628 63 78 0.0 0.0 0.00 0.00 0.00 61 1012.0
20260510040124 63 78 0.0 0.0 0.00 0.00 0.00 60 1011.9
20260510035620 63 79 0.0 0.0 0.00 0.00 0.00 60 1012.2
20260510035121 63 80 0.0 0.0 0.00 0.00 0.00 60 1011.8
20260510034618 63 78 0.0 0.0 0.00 0.00 0.00 60 1011.9
20260510034115 63 77 0.0 0.0 0.00 0.00 0.00 59 1012.0
20260510033611 64 77 0.0 0.0 0.00 0.00 0.00 59 1011.8
20260510033109 64 78 0.0 0.0 0.00 0.00 0.00 58 1012.0
20260510032605 64 79 0.0 0.0 0.00 0.00 0.00 59 1011.9
20260510032100 64 78 0.0 0.0 0.00 0.00 0.00 57 1011.8
20260510031556 65 76 0.0 0.0 0.00 0.00 0.00 57 1011.7
20260510031053 65 80 0.0 0.0 0.00 0.00 0.00 56 1011.7
20260510030547 65 77 0.0 0.0 0.00 0.00 0.00 55 1011.4
20260510030045 65 77 0.0 0.0 0.00 0.00 0.00 54 1011.3
20260510025542 66 76 0.0 0.0 0.00 0.00 0.00 54 1011.2
20260510025040 66 77 0.0 0.0 0.00 0.00 0.00 54 1011.1
20260510024536 66 77 0.0 0.0 0.00 0.00 0.00 53 1011.3
20260510024032 67 79 0.0 0.0 0.00 0.00 0.00 52 1010.9
20260510023528 67 75 0.0 0.0 0.00 0.00 0.00 52 1011.1
20260510023026 67 79 0.0 0.0 0.00 0.00 0.00 52 1010.7
20260510022525 67 78 0.0 0.0 0.00 0.00 0.00 52 1010.7
20260510022020 67 80 0.0 0.0 0.00 0.00 0.00 52 1010.6
20260510021517 67 81 0.0 0.0 0.00 0.00 0.00 53 1010.7
20260510021014 68 75 0.0 0.0 0.00 0.00 0.00 52 1010.3
20260510020508 68 76 0.0 0.0 0.00 0.00 0.00 52 1010.4
20260510020005 68 79 0.0 0.0 0.00 0.00 0.00 52 1010.3
20260510015500 68 79 0.0 0.0 0.00 0.00 0.00 52 1010.2
20260510014955 68 76 0.0 0.0 0.00 0.00 0.00 51 1010.0
20260510014454 69 81 0.0 0.0 0.00 0.00 0.00 52 1010.1
20260510013950 69 78 0.0 0.0 0.00 0.00 0.00 51 1010.0
20260510013444 69 77 0.0 0.0 0.00 0.00 0.00 50 1010.0
20260510012940 70 77 0.0 0.0 0.00 0.00 0.00 49 1010.1
20260510012435 70 78 0.0 0.0 0.00 0.00 0.00 49 1009.9
20260510011931 70 77 0.0 0.0 0.00 0.00 0.00 48 1010.1
20260510011425 71 79 0.0 0.0 0.00 0.00 0.00 48 1010.2
20260510010922 71 79 0.0 0.0 0.00 0.00 0.00 47 1009.8
20260510010419 71 78 0.0 0.0 0.00 0.00 0.00 48 1010.0
20260510005916 72 80 0.0 0.0 0.00 0.00 0.00 46 1009.6
20260510005412 73 77 0.0 0.0 0.00 0.00 0.00 46 1009.7
20260510004909 73 78 0.0 0.0 0.00 0.00 0.00 44 1009.5
20260510004407 74 80 0.0 0.0 0.00 0.00 0.00 44 1009.6
20260510003904 75 80 0.0 0.0 0.00 0.00 0.00 42 1009.5
20260510003401 75 80 0.0 0.0 0.00 0.00 0.00 40 1009.3
20260510002900 76 79 0.0 0.0 0.00 0.00 0.00 41 1009.2
20260510002358 77 79 0.0 0.0 0.00 0.00 0.00 38 1009.1
20260510001854 77 75 0.0 0.0 0.00 0.00 0.00 36 1009.2
20260510001352 78 79 0.0 0.0 0.00 0.00 0.00 36 1009.1
20260510000848 78 36 0.0 0.0 0.00 0.00 0.00 35 1009.1
20260510000348 78 93 0.0 0.9 0.00 0.00 0.00 32 1009.1
20260509235842 79 81 0.0 0.0 0.00 0.00 0.00 33 1009.2
20260509235338 79 79 0.0 0.0 0.00 0.00 0.00 32 1009.2
20260509234835 80 219 0.0 0.9 0.00 0.00 0.00 31 1009.1
20260509234332 80 82 0.0 0.0 0.00 0.00 0.00 31 1009.2
20260509233830 80 80 0.0 0.0 0.00 0.00 0.00 28 1009.2
20260509233327 80 244 1.7 1.7 0.00 0.00 0.00 27 1009.1
20260509232822 80 76 0.0 0.0 0.00 0.00 0.00 28 1008.9
20260509232321 81 71 0.0 0.9 0.00 0.00 0.00 27 1009.2
20260509231816 81 86 0.0 0.0 0.00 0.00 0.00 26 1009.0
20260509231313 81 205 0.0 0.0 0.00 0.00 0.00 27 1009.1
20260509230812 81 74 0.0 0.0 0.00 0.00 0.00 26 1009.2
20260509230308 82 101 0.0 0.0 0.00 0.00 0.00 26 1009.2
20260509225803 83 252 0.0 0.0 0.00 0.00 0.00 24 1009.2
20260509225300 83 82 0.0 0.0 0.00 0.00 0.00 24 1009.0
20260509224756 83 91 0.0 0.0 0.00 0.00 0.00 24 1009.2
20260509224253 83 48 0.0 0.0 0.00 0.00 0.00 22 1009.1
20260509223749 83 63 0.0 0.0 0.00 0.00 0.00 21 1009.2
20260509223246 84 44 0.0 0.0 0.00 0.00 0.00 22 1009.2
20260509222743 84 64 0.0 0.0 0.00 0.00 0.00 20 1009.3
20260509222239 85 47 0.9 1.7 0.00 0.00 0.00 21 1009.3
20260509221734 86 70 0.0 0.0 0.00 0.00 0.00 21 1009.0
20260509221231 85 66 0.0 0.0 0.00 0.00 0.00 23 1009.2
20260509220727 84 61 0.0 0.0 0.00 0.00 0.00 23 1009.1
20260509220223 86 45 1.7 1.7 0.00 0.00 0.00 23 1009.1
20260509215719 86 66 0.0 0.0 0.00 0.00 0.00 22 1009.1
20260509215215 86 71 0.0 0.0 0.00 0.00 0.00 23 1009.1
20260509214713 86 69 0.0 0.0 0.00 0.00 0.00 23 1009.1
20260509214210 87 293 0.9 1.7 0.00 0.00 0.00 22 1008.9
20260509213707 87 59 0.0 0.9 0.00 0.00 0.00 23 1008.9
20260509213202 87 76 0.0 0.9 0.00 0.00 0.00 23 1008.9
20260509212700 86 53 1.7 1.7 0.00 0.00 0.00 21 1008.7
20260509212157 86 72 0.0 0.0 0.00 0.00 0.00 24 1009.0
20260509211652 87 308 0.9 0.9 0.00 0.00 0.00 20 1009.2
20260509211149 86 88 0.0 0.0 0.00 0.00 0.00 23 1009.2
20260509210647 86 46 0.9 1.7 0.00 0.00 0.00 21 1009.3
20260509210144 85 64 0.9 0.9 0.00 0.00 0.00 25 1009.1
20260509205639 86 68 0.9 1.7 0.00 0.00 0.00 21 1009.5
20260509205138 86 322 1.7 2.6 0.00 0.00 0.00 23 1009.6
20260509204635 86 339 0.9 0.9 0.00 0.00 0.00 24 1009.6
20260509204131 86 85 0.0 0.0 0.00 0.00 0.00 24 1009.3
20260509203627 86 64 0.0 0.0 0.00 0.00 0.00 24 1009.5
20260509203126 87 84 0.0 0.9 0.00 0.00 0.00 22 1009.6